Location: Cisewo
(53.3833°N, 14.9000°E)
Time: 11:33:04
(UTC+00:00)

Lacrosse 5 rocket - Pass Details

Date: 18 April 2021
Orbit: 460 x 634 km, 57.0° (Epoch: 15 May)

Event Time Altitude Azimuth Distance (km) Brightness Sun altitude
Rises 22:45:00 0° 296° (WNW) 2,793 5.3 -25.4°
Reaches altitude 10° 22:47:13 10° 293° (WNW) 1,919 4.4 -25.4°
Enters shadow 22:49:53 36° 282° (WNW) 957 2.6 -25.4°
